This is the latest recevied weather packets stored in our database for station/object OK1ALX-6. If no packets are shown the sender has not sent any weather packets the latest 10 day(s).
| Time | Temp. | Humidity | Pressure | Rain* | Wind** | Luminosity | Snow |
|---|---|---|---|---|---|---|---|
| 1788495603 | 18.33° C | 75% | 1022.4 hPa | 0 mm | - | 1 W/m² | - |
| 1788495003 | 18.33° C | 74% | 1022.6 hPa | 0 mm | - | 0 W/m² | - |
| 1788494403 | 18.33° C | 75% | 1022.6 hPa | 0 mm | - | 0 W/m² | - |
| 1788493803 | 18.33° C | 75% | 1022.5 hPa | 0 mm | - | 0 W/m² | - |
| 1788493203 | 17.78° C | 76% | 1023.1 hPa | 0 mm | - | 0 W/m² | - |
| 1788492603 | 17.78° C | 75% | 1023 hPa | 0 mm | - | 0 W/m² | - |
| 1788492003 | 17.78° C | 75% | 1023.1 hPa | 0 mm | - | 0 W/m² | - |
| 1788491403 | 17.78° C | 75% | 1023.3 hPa | 0 mm | - | 0 W/m² | - |
| 1788490803 | 18.33° C | 74% | 1023.1 hPa | 0 mm | - | 0 W/m² | - |
| 1788490203 | 18.33° C | 74% | 1023.4 hPa | 0 mm | - | 0 W/m² | - |
| 1788489603 | 18.33° C | 73% | 1023.1 hPa | 0 mm | - | 0 W/m² | - |
| 1788489003 | 18.33° C | 73% | 1023 hPa | 0 mm | - | 0 W/m² | - |
| 1788488403 | 18.33° C | 72% | 1022.8 hPa | 0 mm | - | 0 W/m² | - |
| 1788487803 | 18.89° C | 72% | 1023 hPa | 0 mm | - | 0 W/m² | - |
| 1788487203 | 18.89° C | 71% | 1022.9 hPa | 0 mm | - | 0 W/m² | - |
| 1788486603 | 18.89° C | 71% | 1022.9 hPa | 0 mm | - | 0 W/m² | - |
| 1788486003 | 18.89° C | 70% | 1022.6 hPa | 0 mm | - | 0 W/m² | - |
| 1788485403 | 18.89° C | 70% | 1022.9 hPa | 0 mm | - | 0 W/m² | - |
| 1788484803 | 18.89° C | 70% | 1022.6 hPa | 0 mm | - | 0 W/m² | - |
| 1788484203 | 18.89° C | 69% | 1022.8 hPa | 0 mm | - | 0 W/m² | - |
| 1788483603 | 18.89° C | 70% | 1022.9 hPa | 0 mm | - | 0 W/m² | - |
| 1788483003 | 18.89° C | 69% | 1022.8 hPa | 0 mm | - | 0 W/m² | - |
| 1788482403 | 18.89° C | 69% | 1023.1 hPa | 0 mm | - | 0 W/m² | - |
| 1788481803 | 19.44° C | 69% | 1023.1 hPa | 0 mm | - | 0 W/m² | - |
| 1788481203 | 18.89° C | 69% | 1023.2 hPa | 0 mm | - | 0 W/m² | - |
* Rain latest hour (hover to see other rain measurements)
** Current wind speed in m/s (hover to see current wind gust speed)